TimeCDT,TemperatureF,Dew PointF,Humidity,Sea Level PressureIn,VisibilityMPH,Wind Direction,Wind SpeedMPH,Gust SpeedMPH,PrecipitationIn,Events,Conditions,WindDirDegrees,DateUTC
12:55 AM,46.9,44.1,90,30.15,10.0,NW,3.5,-,N/A,,Clear,310,2013-05-06 05:55:00
1:55 AM,44.1,42.1,93,30.13,10.0,WNW,3.5,-,N/A,,Clear,290,2013-05-06 06:55:00
2:55 AM,44.1,43.0,96,30.12,10.0,NW,3.5,-,N/A,,Clear,320,2013-05-06 07:55:00
3:55 AM,43.0,42.1,97,30.12,7.0,NNW,3.5,-,N/A,,Clear,330,2013-05-06 08:55:00
4:55 AM,41.0,39.9,96,30.12,6.0,West,4.6,-,N/A,,Clear,280,2013-05-06 09:55:00
5:53 AM,37.4,37.4,100,30.13,1.8,Calm,Calm,-,N/A,,Clear,0,2013-05-06 10:53:00
5:55 AM,37.9,37.0,97,30.13,1.5,Calm,Calm,-,N/A,,Clear,0,2013-05-06 10:55:00
6:03 AM,39.2,37.4,93,30.13,3.0,Calm,Calm,-,N/A,,Clear,0,2013-05-06 11:03:00
6:55 AM,39.0,37.9,96,30.15,4.0,West,4.6,-,N/A,,Partly Cloudy,280,2013-05-06 11:55:00
6:59 AM,39.2,37.4,93,30.15,1.5,West,4.6,-,N/A,,Scattered Clouds,280,2013-05-06 11:59:00
7:01 AM,39.2,37.4,93,30.15,0.5,WNW,4.6,-,N/A,Fog,Fog,290,2013-05-06 12:01:00
7:25 AM,39.2,39.2,100,30.15,1.0,Calm,Calm,-,N/A,,Mist,0,2013-05-06 12:25:00
7:28 AM,39.2,39.2,100,30.15,1.8,Calm,Calm,-,N/A,,Mostly Cloudy,0,2013-05-06 12:28:00
7:31 AM,41.0,39.2,93,30.15,2.0,Calm,Calm,-,N/A,,Mostly Cloudy,0,2013-05-06 12:31:00
7:42 AM,42.8,41.0,93,30.16,4.0,Calm,Calm,-,N/A,,Mostly Cloudy,0,2013-05-06 12:42:00
7:51 AM,42.8,42.8,100,30.16,1.2,NNE,5.8,-,N/A,,Overcast,30,2013-05-06 12:51:00
7:55 AM,43.0,42.1,97,30.17,0.2,NE,5.8,-,N/A,Fog,Fog,40,2013-05-06 12:55:00
8:55 AM,44.1,43.0,96,30.17,0.2,North,3.5,-,N/A,Fog,Fog,350,2013-05-06 13:55:00
9:42 AM,46.4,44.6,93,30.17,1.5,Calm,Calm,-,N/A,,Overcast,0,2013-05-06 14:42:00
9:44 AM,46.4,44.6,93,30.17,2.0,NNW,3.5,-,N/A,,Overcast,330,2013-05-06 14:44:00
9:55 AM,46.0,45.0,96,30.17,4.0,NNE,6.9,-,N/A,,Overcast,30,2013-05-06 14:55:00
10:23 AM,48.2,44.6,87,30.17,10.0,Calm,Calm,-,N/A,,Overcast,0,2013-05-06 15:23:00
10:37 AM,48.2,44.6,87,30.17,10.0,Variable,3.5,-,N/A,,Mostly Cloudy,0,2013-05-06 15:37:00
10:52 AM,53.6,46.4,77,30.16,10.0,NE,4.6,-,N/A,,Scattered Clouds,50,2013-05-06 15:52:00
10:55 AM,54.0,46.0,75,30.17,10.0,NE,3.5,-,N/A,,Partly Cloudy,40,2013-05-06 15:55:00
11:55 AM,59.0,45.0,60,30.15,10.0,NNE,10.4,16.1,N/A,,Clear,20,2013-05-06 16:55:00
12:55 PM,62.1,45.0,53,30.13,10.0,North,8.1,-,N/A,,Clear,350,2013-05-06 17:55:00
1:55 PM,63.0,45.0,52,30.11,10.0,Variable,4.6,-,N/A,,Clear,0,2013-05-06 18:55:00
2:55 PM,64.9,45.0,48,30.09,10.0,Variable,4.6,-,N/A,,Clear,0,2013-05-06 19:55:00
3:55 PM,64.9,46.9,52,30.06,10.0,South,5.8,-,N/A,,Clear,190,2013-05-06 20:55:00
4:55 PM,66.0,46.9,50,30.04,10.0,Variable,5.8,-,N/A,,Clear,0,2013-05-06 21:55:00
5:55 PM,66.9,48.0,51,30.04,10.0,Variable,5.8,-,N/A,,Scattered Clouds,0,2013-05-06 22:55:00
6:55 PM,64.9,48.0,54,30.04,10.0,SE,4.6,-,N/A,,Partly Cloudy,140,2013-05-06 23:55:00
7:55 PM,62.1,50.0,65,30.04,10.0,Calm,Calm,-,N/A,,Clear,0,2013-05-07 00:55:00
8:55 PM,55.9,48.0,75,30.06,10.0,SE,4.6,-,N/A,,Clear,140,2013-05-07 01:55:00
9:55 PM,54.0,-9999,N/A,30.07,10.0,SSE,5.8,-,N/A,,Clear,160,2013-05-07 02:55:00
10:55 PM,51.1,-9999,N/A,30.06,10.0,South,6.9,-,N/A,,Clear,170,2013-05-07 03:55:00
11:55 PM,52.0,-9999,N/A,30.05,10.0,South,5.8,-,N/A,,Clear,170,2013-05-07 04:55:00